Time,TemperatureF,DewpointF,PressureIn,WindDirection,WindDirectionDegrees,WindSpeedMPH,WindSpeedGustMPH,Humidity,HourlyPrecipIn,Conditions,Clouds,dailyrainin,SolarRadiationWatts/m^2,SoftwareType,DateUTC
2013-07-28 00:14:00,77.9,74.0,29.80,SW,216,0.0,-999.0,88,-99.99,,,0.00,0,weatherlink.com 1.10,2013-07-27 22:14:00,
2013-07-28 00:28:00,77.8,74.0,29.80,SW,216,3.0,-999.0,88,-99.99,,,0.00,0,weatherlink.com 1.10,2013-07-27 22:28:00,
2013-07-28 00:44:00,77.7,74.0,29.80,SSW,213,3.0,-999.0,89,-99.99,,,0.00,0,weatherlink.com 1.10,2013-07-27 22:44:00,
2013-07-28 00:59:00,77.6,74.0,29.81,SSW,202,0.0,-999.0,89,-99.99,,,0.00,0,weatherlink.com 1.10,2013-07-27 22:59:00,
2013-07-28 01:15:00,77.5,74.0,29.80,SSW,209,5.0,-999.0,89,-99.99,,,0.00,0,weatherlink.com 1.10,2013-07-27 23:15:00,
2013-07-28 01:29:00,77.4,74.0,29.80,SSW,211,4.0,-999.0,90,-99.99,,,0.00,0,weatherlink.com 1.10,2013-07-27 23:29:00,
2013-07-28 01:44:00,77.3,74.0,29.80,SSW,212,0.0,-999.0,90,-99.99,,,0.00,0,weatherlink.com 1.10,2013-07-27 23:44:00,
2013-07-28 02:00:00,77.1,74.0,29.81,SSW,212,4.0,-999.0,90,-99.99,,,0.00,0,weatherlink.com 1.10,2013-07-28 00:00:00,
2013-07-28 02:15:00,76.9,74.0,29.80,SSW,209,3.0,-999.0,90,-99.99,,,0.00,0,weatherlink.com 1.10,2013-07-28 00:15:00,
2013-07-28 02:30:00,76.6,74.0,29.80,SSW,207,0.0,-999.0,90,-99.99,,,0.00,0,weatherlink.com 1.10,2013-07-28 00:30:00,
2013-07-28 02:45:00,76.3,73.0,29.80,SSW,202,3.0,-999.0,90,-99.99,,,0.00,0,weatherlink.com 1.10,2013-07-28 00:45:00,
2013-07-28 03:01:00,75.9,73.0,29.80,SSW,202,5.0,-999.0,89,-99.99,,,0.00,0,weatherlink.com 1.10,2013-07-28 01:01:00,
2013-07-28 03:15:00,75.5,72.0,29.79,SSW,204,4.0,-999.0,89,-99.99,,,0.00,0,weatherlink.com 1.10,2013-07-28 01:15:00,
2013-07-28 03:31:00,75.2,72.0,29.79,SSW,208,2.0,-999.0,89,-99.99,,,0.00,0,weatherlink.com 1.10,2013-07-28 01:31:00,
2013-07-28 03:46:00,75.2,72.0,29.79,SSW,208,2.0,-999.0,88,-99.99,,,0.00,0,weatherlink.com 1.10,2013-07-28 01:46:00,
2013-07-28 04:02:00,75.0,71.0,29.80,SSW,208,4.0,-999.0,87,-99.99,,,0.00,0,weatherlink.com 1.10,2013-07-28 02:02:00,
2013-07-28 04:17:00,74.9,71.0,29.80,SSW,209,3.0,-999.0,87,-99.99,,,0.00,0,weatherlink.com 1.10,2013-07-28 02:17:00,
2013-07-28 04:32:00,75.2,71.0,29.79,SSW,209,4.0,-999.0,86,-99.99,,,0.00,0,weatherlink.com 1.10,2013-07-28 02:32:00,
2013-07-28 04:47:00,75.5,71.0,29.78,SSW,209,0.0,-999.0,86,-99.99,,,0.00,0,weatherlink.com 1.10,2013-07-28 02:47:00,
2013-07-28 05:03:00,75.5,71.0,29.78,SSW,209,3.0,-999.0,86,-99.99,,,0.00,0,weatherlink.com 1.10,2013-07-28 03:03:00,
2013-07-28 05:17:00,75.6,71.0,29.79,SW,225,3.0,-999.0,85,-99.99,,,0.00,0,weatherlink.com 1.10,2013-07-28 03:17:00,
2013-07-28 05:32:00,75.9,71.0,29.79,SW,217,2.0,-999.0,85,-99.99,,,0.00,0,weatherlink.com 1.10,2013-07-28 03:32:00,
2013-07-28 05:48:00,76.1,71.0,29.79,SW,225,3.0,-999.0,85,-99.99,,,0.00,0,weatherlink.com 1.10,2013-07-28 03:48:00,
2013-07-28 06:03:00,76.2,71.0,29.80,WSW,244,6.0,-999.0,85,-99.99,,,0.00,0,weatherlink.com 1.10,2013-07-28 04:03:00,
2013-07-28 06:18:00,76.2,72.0,29.80,WSW,248,6.0,-999.0,86,-99.99,,,0.00,0,weatherlink.com 1.10,2013-07-28 04:18:00,
2013-07-28 06:33:00,76.3,72.0,29.80,WSW,251,2.0,-999.0,86,-99.99,,,0.00,0,weatherlink.com 1.10,2013-07-28 04:33:00,
2013-07-28 06:48:00,76.3,72.0,29.81,WSW,257,7.0,-999.0,87,-99.99,,,0.00,0,weatherlink.com 1.10,2013-07-28 04:48:00,
2013-07-28 07:04:00,76.4,72.0,29.82,WSW,243,2.0,-999.0,87,-99.99,,,0.00,12,weatherlink.com 1.10,2013-07-28 05:04:00,
2013-07-28 07:19:00,76.4,72.0,29.82,SW,221,0.0,-999.0,87,-99.99,,,0.00,25,weatherlink.com 1.10,2013-07-28 05:19:00,
2013-07-28 07:34:00,76.5,73.0,29.83,SW,224,6.0,-999.0,88,-99.99,,,0.00,42,weatherlink.com 1.10,2013-07-28 05:34:00,
2013-07-28 07:49:00,76.8,73.0,29.83,SW,219,6.0,-999.0,88,-99.99,,,0.00,62,weatherlink.com 1.10,2013-07-28 05:49:00,
2013-07-28 08:05:00,77.0,73.0,29.83,WSW,254,5.0,-999.0,88,-99.99,,,0.00,100,weatherlink.com 1.10,2013-07-28 06:05:00,
2013-07-28 08:19:00,77.3,74.0,29.83,SW,228,5.0,-999.0,88,-99.99,,,0.00,76,weatherlink.com 1.10,2013-07-28 06:19:00,
2013-07-28 08:35:00,77.5,74.0,29.84,West,259,8.0,-999.0,88,-99.99,,,0.00,76,weatherlink.com 1.10,2013-07-28 06:35:00,
2013-07-28 08:50:00,77.7,74.0,29.84,WNW,284,7.0,-999.0,88,-99.99,,,0.00,72,weatherlink.com 1.10,2013-07-28 06:50:00,
2013-07-28 09:06:00,78.0,74.0,29.84,West,275,1.0,-999.0,88,-99.99,,,0.00,77,weatherlink.com 1.10,2013-07-28 07:06:00,
2013-07-28 09:20:00,78.2,74.0,29.84,West,268,8.0,-999.0,88,-99.99,,,0.00,77,weatherlink.com 1.10,2013-07-28 07:20:00,
2013-07-28 09:36:00,78.2,74.0,29.84,West,272,3.0,-999.0,87,-99.99,,,0.00,86,weatherlink.com 1.10,2013-07-28 07:36:00,
2013-07-28 10:06:00,78.8,74.0,29.85,WNW,288,3.0,-999.0,86,-99.99,,,0.00,127,weatherlink.com 1.10,2013-07-28 08:06:00,
2013-07-28 10:21:00,80.4,75.0,29.85,West,275,6.0,-999.0,82,-99.99,,,0.00,527,weatherlink.com 1.10,2013-07-28 08:21:00,
2013-07-28 10:37:00,81.8,75.0,29.85,West,277,9.0,-999.0,80,-99.99,,,0.00,571,weatherlink.com 1.10,2013-07-28 08:37:00,
2013-07-28 10:52:00,83.3,75.0,29.85,West,279,8.0,-999.0,77,-99.99,,,0.00,608,weatherlink.com 1.10,2013-07-28 08:52:00,
2013-07-28 11:08:00,83.8,75.0,29.85,WSW,256,9.0,-999.0,74,-99.99,,,0.00,645,weatherlink.com 1.10,2013-07-28 09:08:00,
2013-07-28 11:22:00,83.5,75.0,29.86,WSW,244,11.0,-999.0,75,-99.99,,,0.00,680,weatherlink.com 1.10,2013-07-28 09:22:00,
2013-07-28 11:38:00,85.0,74.0,29.86,West,281,7.0,-999.0,70,-99.99,,,0.00,714,weatherlink.com 1.10,2013-07-28 09:38:00,
2013-07-28 11:52:00,84.6,74.0,29.86,SSW,212,6.0,-999.0,71,-99.99,,,0.00,738,weatherlink.com 1.10,2013-07-28 09:52:00,
2013-07-28 12:08:00,85.2,74.0,29.86,SW,215,7.0,-999.0,70,-99.99,,,0.00,765,weatherlink.com 1.10,2013-07-28 10:08:00,
2013-07-28 12:24:00,84.7,73.0,29.87,WSW,255,9.0,-999.0,68,-99.99,,,0.00,791,weatherlink.com 1.10,2013-07-28 10:24:00,
2013-07-28 12:38:00,84.7,73.0,29.87,SW,232,11.0,-999.0,69,-99.99,,,0.00,807,weatherlink.com 1.10,2013-07-28 10:38:00,
2013-07-28 12:54:00,85.1,73.0,29.86,West,274,9.0,-999.0,68,-99.99,,,0.00,824,weatherlink.com 1.10,2013-07-28 10:54:00,
2013-07-28 13:08:00,85.2,74.0,29.87,WSW,257,10.0,-999.0,68,-99.99,,,0.00,835,weatherlink.com 1.10,2013-07-28 11:08:00,
2013-07-28 13:24:00,85.6,74.0,29.88,West,264,9.0,-999.0,68,-99.99,,,0.00,846,weatherlink.com 1.10,2013-07-28 11:24:00,
2013-07-28 13:40:00,85.2,73.0,29.88,WSW,254,6.0,-999.0,67,-99.99,,,0.00,853,weatherlink.com 1.10,2013-07-28 11:40:00,
2013-07-28 13:54:00,85.7,74.0,29.88,West,262,9.0,-999.0,67,-99.99,,,0.00,854,weatherlink.com 1.10,2013-07-28 11:54:00,
2013-07-28 14:10:00,85.9,72.0,29.89,West,273,12.0,-999.0,64,-99.99,,,0.00,856,weatherlink.com 1.10,2013-07-28 12:10:00,
2013-07-28 14:25:00,85.3,73.0,29.89,WSW,255,9.0,-999.0,66,-99.99,,,0.00,849,weatherlink.com 1.10,2013-07-28 12:25:00,
2013-07-28 14:41:00,84.8,73.0,29.89,WSW,254,11.0,-999.0,67,-99.99,,,0.00,847,weatherlink.com 1.10,2013-07-28 12:41:00,
2013-07-28 14:55:00,85.1,72.0,29.88,SSW,207,3.0,-999.0,65,-99.99,,,0.00,847,weatherlink.com 1.10,2013-07-28 12:55:00,
2013-07-28 15:10:00,84.8,72.0,29.88,WSW,237,0.0,-999.0,65,-99.99,,,0.00,838,weatherlink.com 1.10,2013-07-28 13:10:00,
2013-07-28 15:26:00,85.6,73.0,29.88,SW,226,3.0,-999.0,65,-99.99,,,0.00,747,weatherlink.com 1.10,2013-07-28 13:26:00,
2013-07-28 15:41:00,85.2,73.0,29.88,West,273,6.0,-999.0,67,-99.99,,,0.00,784,weatherlink.com 1.10,2013-07-28 13:41:00,
2013-07-28 15:56:00,85.3,73.0,29.89,West,267,9.0,-999.0,67,-99.99,,,0.00,763,weatherlink.com 1.10,2013-07-28 13:56:00,
2013-07-28 16:11:00,84.3,72.0,29.88,WSW,255,8.0,-999.0,67,-99.99,,,0.00,731,weatherlink.com 1.10,2013-07-28 14:11:00,
2013-07-28 16:57:00,85.1,71.0,29.88,SW,221,10.0,-999.0,62,-99.99,,,0.00,638,weatherlink.com 1.10,2013-07-28 14:57:00,
2013-07-28 17:12:00,86.2,72.0,29.88,SW,232,6.0,-999.0,62,-99.99,,,0.00,601,weatherlink.com 1.10,2013-07-28 15:12:00,
2013-07-28 17:27:00,85.2,71.0,29.88,WSW,248,5.0,-999.0,62,-99.99,,,0.00,570,weatherlink.com 1.10,2013-07-28 15:27:00,
2013-07-28 17:42:00,84.6,69.0,29.88,SSW,209,6.0,-999.0,60,-99.99,,,0.00,529,weatherlink.com 1.10,2013-07-28 15:42:00,
2013-07-28 17:58:00,85.5,69.0,29.88,SSW,207,3.0,-999.0,58,-99.99,,,0.00,482,weatherlink.com 1.10,2013-07-28 15:58:00,
2013-07-28 18:12:00,84.1,68.0,29.88,SSW,209,7.0,-999.0,58,-99.99,,,0.00,438,weatherlink.com 1.10,2013-07-28 16:12:00,
2013-07-28 18:28:00,83.4,70.0,29.88,SW,225,5.0,-999.0,64,-99.99,,,0.00,390,weatherlink.com 1.10,2013-07-28 16:28:00,
2013-07-28 18:43:00,83.8,70.0,29.87,SW,233,4.0,-999.0,63,-99.99,,,0.00,343,weatherlink.com 1.10,2013-07-28 16:43:00,
2013-07-28 18:58:00,83.5,69.0,29.88,SSW,192,4.0,-999.0,61,-99.99,,,0.00,299,weatherlink.com 1.10,2013-07-28 16:58:00,
2013-07-28 19:14:00,83.1,69.0,29.88,WSW,238,2.0,-999.0,63,-99.99,,,0.00,251,weatherlink.com 1.10,2013-07-28 17:14:00,
2013-07-28 19:28:00,82.9,69.0,29.88,SSW,201,5.0,-999.0,63,-99.99,,,0.00,165,weatherlink.com 1.10,2013-07-28 17:28:00,
2013-07-28 19:44:00,82.5,69.0,29.88,SSW,211,4.0,-999.0,64,-99.99,,,0.00,74,weatherlink.com 1.10,2013-07-28 17:44:00,
2013-07-28 19:59:00,81.8,71.0,29.89,SSW,204,4.0,-999.0,70,-99.99,,,0.00,105,weatherlink.com 1.10,2013-07-28 17:59:00,
2013-07-28 20:14:00,82.0,72.0,29.89,South,170,5.0,-999.0,72,-99.99,,,0.00,35,weatherlink.com 1.10,2013-07-28 18:14:00,
2013-07-28 20:30:00,81.7,72.0,29.90,South,172,7.0,-999.0,73,-99.99,,,0.00,39,weatherlink.com 1.10,2013-07-28 18:30:00,
2013-07-28 20:44:00,80.9,72.0,29.90,SSW,194,4.0,-999.0,73,-99.99,,,0.00,16,weatherlink.com 1.10,2013-07-28 18:44:00,
2013-07-28 21:00:00,79.9,71.0,29.90,South,182,3.0,-999.0,73,-99.99,,,0.00,0,weatherlink.com 1.10,2013-07-28 19:00:00,
2013-07-28 21:15:00,79.6,71.0,29.90,SSW,195,4.0,-999.0,75,-99.99,,,0.00,0,weatherlink.com 1.10,2013-07-28 19:15:00,
2013-07-28 21:31:00,79.1,71.0,29.91,SSW,207,6.0,-999.0,75,-99.99,,,0.00,0,weatherlink.com 1.10,2013-07-28 19:31:00,
2013-07-28 21:45:00,78.7,71.0,29.92,SSW,197,6.0,-999.0,76,-99.99,,,0.00,0,weatherlink.com 1.10,2013-07-28 19:45:00,
2013-07-28 22:01:00,78.5,70.0,29.94,SW,229,7.0,-999.0,76,-99.99,,,0.00,0,weatherlink.com 1.10,2013-07-28 20:01:00,
2013-07-28 22:16:00,78.8,72.0,29.94,SSW,197,5.0,-999.0,79,-99.99,,,0.00,0,weatherlink.com 1.10,2013-07-28 20:16:00,
2013-07-28 22:46:00,78.2,72.0,29.96,SSW,200,6.0,-999.0,80,-99.99,,,0.00,0,weatherlink.com 1.10,2013-07-28 20:46:00,
2013-07-28 23:02:00,78.0,71.0,29.97,SSW,209,4.0,-999.0,80,-99.99,,,0.00,0,weatherlink.com 1.10,2013-07-28 21:02:00,
2013-07-28 23:17:00,77.5,71.0,29.97,WSW,239,9.0,-999.0,79,-99.99,,,0.00,0,weatherlink.com 1.10,2013-07-28 21:17:00,
2013-07-28 23:32:00,77.5,71.0,29.97,WSW,253,2.0,-999.0,79,-99.99,,,0.00,0,weatherlink.com 1.10,2013-07-28 21:32:00,
2013-07-28 23:47:00,77.8,71.0,29.97,SW,215,5.0,-999.0,80,-99.99,,,0.00,0,weatherlink.com 1.10,2013-07-28 21:47:00,